Location: Chester
(43.2628°N, 72.5951°W)
Time: 01:02:26
(UTC-05:00)

ISS - Pass Details

Date: 29 January 2021
Orbit: 417 x 422 km, 51.6° (Epoch: 07 March)

Event Time Altitude Azimuth Distance (km) Brightness Sun altitude
Rises 18:14:26 0° 300° (WNW) 2,375 0.9 -13.9°
Reaches altitude 10° 18:16:54 10° 317° (NW) 1,510 -0.5 -14.4°
Maximum altitude 18:19:33 21° 9° (N) 1,013 -2.0 -14.8°
Enters shadow 18:20:19 19° 28° (NNE) 1,064 -2.1 -15.0°
